Washington, MO

4:40 AM CDT on October 20, 2017 (GMT -0500)
Washington

Weather History for KFYG - December, 2013

Change the Weather History Date:

Sunday, December 8, 2013

  Actual Average (KSUS) Record (KSUS)
Temperature  
Mean Temperature 24 °F -  
Max Temperature 28 °F 45 °F 63 °F (2015)
Min Temperature 19 °F 27 °F 8 °F (2005)
Degree Days  
Heating Degree Days 42    
Moisture  
Dew Point 21 °F    
Average Humidity 90    
Maximum Humidity 100    
Minimum Humidity 54    
Precipitation  
Precipitation 0.05 in - - ()
Sea Level Pressure  
Sea Level Pressure 30.17 in    
Wind  
Wind Speed 4 mph (SE)    
Max Wind Speed 8 mph    
Max Gust Speed -    
Visibility 6 miles    
Events Snow    
Averages and records for this station are not official NWS values.
T = Trace of Precipitation, MM = Missing Value Source: NWS Daily Summary

Daily Weather History Graph

Daily Weather History Graph

Search for Another Location

Airport or City:

Trip Planner

Search our weather history database for the weather conditions in past years. The results will help you decide how hot, cold, wet, or windy it might be!

Date:

Astronomy

Dec. 08, 2013 Rise Set
Actual Time 7:09 AM CST 4:42 PM CST
Civil Twilight 6:39 AM CST 5:12 PM CST
Nautical Twilight 6:06 AM CST 5:45 PM CST
Astronomical Twilight 5:34 AM CST 6:17 PM CST
Moon 11:33 AM CST (12/8) 11:28 PM CST (12/8)
Length of Visible Light 10h 32m
Length of Day
9h 33m
Waxing Crescent, 40% of the Moon is Illuminated
Dec 8
Waxing Crescent
Dec 9
First Quarter
Dec 17
Full
Dec 25
Last Quarter
Jan 1
New

Hourly Weather History & Observations

Time (CST) Temp. Windchill Dew Point Humidity Pressure Visibility Wind Dir Wind Speed Gust Speed Precip Events Conditions
12:15 AM 23.0 °F 15.8 °F 8.6 °F 54% 30.44 in 10.0 mi East 5.8 mph - N/A   Overcast
12:55 AM 23.0 °F 18.4 °F 10.4 °F 59% 30.42 in 10.0 mi SE 3.5 mph - N/A   Overcast
1:15 AM 23.0 °F 18.4 °F 10.4 °F 59% 30.42 in 10.0 mi ESE 3.5 mph - N/A   Overcast
1:35 AM 21.2 °F 14.9 °F 14.0 °F 74% 30.40 in 3.0 mi ESE 4.6 mph - 0.01 in Snow Light Snow
1:55 AM 21.2 °F 16.4 °F 15.8 °F 80% 30.40 in 5.0 mi East 3.5 mph - 0.03 in Snow Light Snow
2:15 AM 21.2 °F 16.4 °F 15.8 °F 80% 30.38 in 3.0 mi East 3.5 mph - 0.01 in Snow Light Snow
2:35 AM 19.4 °F 12.8 °F 15.8 °F 86% 30.37 in 5.0 mi East 4.6 mph - 0.02 in Snow Light Snow
2:55 AM 21.2 °F 14.9 °F 15.8 °F 80% 30.35 in 10.0 mi NE 4.6 mph - 0.02 in   Overcast
3:15 AM 21.2 °F - 15.8 °F 80% 30.34 in 10.0 mi Calm Calm - N/A   Overcast
3:35 AM 21.2 °F 12.6 °F 15.8 °F 80% 30.34 in 10.0 mi East 6.9 mph - N/A   Overcast
3:55 AM 21.2 °F 16.4 °F 15.8 °F 80% 30.33 in 10.0 mi ENE 3.5 mph - N/A   Overcast
4:15 AM 21.2 °F 14.9 °F 15.8 °F 80% 30.31 in 10.0 mi ENE 4.6 mph - N/A   Overcast
4:35 AM 21.2 °F 16.4 °F 15.8 °F 80% 30.29 in 10.0 mi ENE 3.5 mph - N/A   Overcast
5:35 AM 21.2 °F 14.9 °F 17.6 °F 86% 30.26 in 10.0 mi ENE 4.6 mph - N/A   Overcast
5:55 AM 21.2 °F 14.9 °F 17.6 °F 86% 30.26 in 10.0 mi East 4.6 mph - N/A   Overcast
6:15 AM 21.2 °F - 17.6 °F 86% 30.27 in 10.0 mi Calm Calm - N/A   Overcast
6:35 AM 21.2 °F - 17.6 °F 86% 30.27 in 10.0 mi Calm Calm - N/A   Overcast
6:55 AM 21.2 °F 16.4 °F 17.6 °F 86% 30.25 in 10.0 mi East 3.5 mph - N/A   Overcast
7:15 AM 21.2 °F - 17.6 °F 86% 30.24 in 10.0 mi Calm Calm - N/A   Overcast
7:35 AM 23.0 °F 18.4 °F 17.6 °F 80% 30.24 in 10.0 mi East 3.5 mph - N/A   Overcast
7:55 AM 23.0 °F 18.4 °F 17.6 °F 80% 30.24 in 10.0 mi ESE 3.5 mph - N/A   Overcast
8:15 AM 23.0 °F 15.8 °F 17.6 °F 80% 30.23 in 5.0 mi ESE 5.8 mph - N/A   Overcast
8:35 AM 23.0 °F 14.7 °F 19.4 °F 86% 30.21 in 2.5 mi ESE 6.9 mph - N/A Snow Light Snow
8:55 AM 23.0 °F 14.7 °F 19.4 °F 86% 30.21 in 2.0 mi SE 6.9 mph - N/A Snow Light Snow
9:15 AM 23.0 °F 14.7 °F 19.4 °F 86% 30.22 in 3.0 mi ESE 6.9 mph - N/A Snow Light Snow
9:35 AM 23.0 °F 15.8 °F 19.4 °F 86% 30.21 in 2.0 mi ESE 5.8 mph - N/A Snow Light Snow
9:55 AM 23.0 °F 13.9 °F 19.4 °F 86% 30.21 in 3.0 mi SE 8.1 mph - N/A Snow Light Snow
10:15 AM 23.0 °F 14.7 °F 19.4 °F 86% 30.20 in 3.0 mi ESE 6.9 mph - N/A Snow Light Snow
10:35 AM 24.8 °F 17.9 °F 19.4 °F 80% 30.18 in 4.0 mi ESE 5.8 mph - N/A Snow Light Snow
10:55 AM 24.8 °F 19.1 °F 21.2 °F 86% 30.17 in 3.0 mi SE 4.6 mph - N/A   Partly Cloudy
11:15 AM 24.8 °F 19.1 °F 21.2 °F 86% 30.16 in 5.0 mi SE 4.6 mph - N/A   Scattered Clouds
11:35 AM 24.8 °F 17.9 °F 21.2 °F 86% 30.14 in 7.0 mi ESE 5.8 mph - N/A   Mostly Cloudy
11:55 AM 24.8 °F 17.9 °F 21.2 °F 86% 30.12 in 7.0 mi SE 5.8 mph - N/A   Mostly Cloudy
12:55 PM 24.8 °F 17.9 °F 24.8 °F 100% 30.09 in 1.0 mi SSE 5.8 mph - N/A   Mostly Cloudy
1:15 PM 24.8 °F 16.9 °F 24.8 °F 100% 30.06 in 1.2 mi SE 6.9 mph - N/A   Overcast
2:15 PM 24.8 °F 16.9 °F 24.8 °F 100% 30.02 in 3.0 mi SE 6.9 mph - N/A   Overcast
2:55 PM 24.8 °F 16.9 °F 24.8 °F 100% 30.03 in 7.0 mi South 6.9 mph - N/A   Overcast
3:15 PM 24.8 °F 17.9 °F 24.8 °F 100% 30.03 in 4.0 mi South 5.8 mph - N/A   Overcast
3:35 PM 24.8 °F 16.9 °F 24.8 °F 100% 30.03 in 3.0 mi South 6.9 mph - N/A   Overcast
3:55 PM 24.8 °F 17.9 °F 24.8 °F 100% 30.03 in 5.0 mi South 5.8 mph - N/A   Overcast
4:15 PM 26.6 °F 19.1 °F 26.6 °F 100% 30.03 in 2.0 mi South 6.9 mph - N/A   Overcast
4:35 PM 24.8 °F 19.1 °F 24.8 °F 100% 30.03 in 1.5 mi South 4.6 mph - N/A   Overcast
4:55 PM 24.8 °F - 24.8 °F 100% 30.03 in 3.0 mi Calm Calm - N/A   Overcast
5:15 PM 24.8 °F 19.1 °F 24.8 °F 100% 30.03 in 3.0 mi South 4.6 mph - N/A   Overcast
5:35 PM 26.6 °F - 26.6 °F 100% 30.03 in 2.5 mi Calm Calm - N/A   Overcast
5:55 PM 26.6 °F 22.6 °F 26.6 °F 100% 30.03 in 2.5 mi South 3.5 mph - N/A Snow Light Snow
6:15 PM 26.6 °F - 26.6 °F 100% 30.04 in 2.5 mi Calm Calm - N/A Snow Light Snow
6:35 PM 26.6 °F - 26.6 °F 100% 30.04 in 3.0 mi Calm Calm - N/A Snow Light Snow
6:55 PM 26.6 °F - 26.6 °F 100% 30.05 in 4.0 mi Calm Calm - N/A   Overcast
7:15 PM 26.6 °F - 26.6 °F 100% 30.05 in 5.0 mi Calm Calm - N/A   Overcast
7:35 PM 26.6 °F - 26.6 °F 100% 30.06 in 5.0 mi Calm Calm - N/A   Overcast
7:55 PM 26.6 °F - 26.6 °F 100% 30.07 in 6.0 mi Calm Calm - N/A   Overcast
8:35 PM 26.6 °F - 26.6 °F 100% 30.07 in 7.0 mi Calm Calm - N/A   Overcast
8:55 PM 26.6 °F - 26.6 °F 100% 30.07 in 7.0 mi Calm Calm - N/A   Overcast
9:15 PM 26.6 °F - 26.6 °F 100% 30.07 in 7.0 mi Calm Calm - N/A   Overcast
9:35 PM 26.6 °F 22.6 °F 26.6 °F 100% 30.08 in 8.0 mi West 3.5 mph - N/A   Overcast
9:55 PM 26.6 °F - 26.6 °F 100% 30.09 in 8.0 mi Calm Calm - N/A   Overcast
10:15 PM 26.6 °F - 26.6 °F 100% 30.09 in 9.0 mi Calm Calm - N/A   Overcast
10:35 PM 26.6 °F 21.2 °F 26.6 °F 100% 30.09 in 10.0 mi WNW 4.6 mph - N/A   Overcast
10:55 PM 26.6 °F 21.2 °F 26.6 °F 100% 30.09 in 10.0 mi West 4.6 mph - N/A   Overcast
11:15 PM 28.4 °F 23.3 °F 26.6 °F 93% 30.10 in 10.0 mi West 4.6 mph - N/A   Overcast
11:35 PM 28.4 °F 23.3 °F 28.4 °F 100% 30.10 in 10.0 mi West 4.6 mph - N/A   Overcast
11:55 PM 28.4 °F 22.2 °F 28.4 °F 100% 30.11 in 10.0 mi WNW 5.8 mph - N/A   Overcast